Location: Beuvrequen
(50.8014°N, 1.6652°E)
Time: 20:09:29
(UTC+00:00)

CZ-4 R/B - Pass Details

Date: 16 October 2021
Orbit: 531 x 595 km, 97.8° (Epoch: 04 December)

Event Time Altitude Azimuth Distance (km) Brightness Sun altitude
Rises 19:39:44 0° 205° (SSW) 2,711 4.9 -26.0°
Reaches altitude 10° 19:42:23 10° 224° (SW) 1,836 4.3 -26.4°
Maximum altitude 19:45:11 18° 269° (W) 1,396 4.1 -26.8°
Drops below altitude 10° 19:48:02 10° 314° (NW) 1,875 4.8 -27.2°
Sets 19:50:47 0° 334° (NNW) 2,793 5.6 -27.6°
